{"data":{"norad_id":16908,"epoch":"2026-05-25T04:09:17.193888Z","epoch_age_seconds":53288,"freshness":"FRESH","line1":"1 16908U 86061A   26145.17311567 -.00000091  00000+0  47564-4 0  9994","line2":"2 16908  50.0079 218.1644 0011353 122.2282 331.4574 12.44516449477527","mean_motion":12.44516449,"eccentricity":0.0011353,"inclination_deg":50.0079,"raan_deg":218.1644,"arg_perigee_deg":122.2282,"mean_anomaly_deg":331.4574,"bstar":4.7564e-5,"rev_number":47752,"period_min":115.7075907801,"perigee_km":1478.5854730775,"apogee_km":1496.4452232993,"semimajor_km":7865.6523481884,"source":"CELESTRAK","updated_at":"2026-05-25T13:38:24.771047Z"}}